[[{"header":{"parameterUnit":"m.s-1","parameterCategory":1,"la1":30.2991,"la2":30.254,"lo1":-89.0895,"lo2":-89.0444,"dy":0.0017,"dx":0.0017,"nx":28,"ny":28,"refTime":"2026-02-11T09:00:00:Z","depth":0,"parameterNumber":2,"parameterNumberName":"U-component_of_WINDS"},"data":[0,0,0,0,0,0,0,0,0,0,0,0,0,0,0,0,0,0,0,0,0,0,0,0,0,0,0,0,0,0,0,0,0,0,0,0,0,0,0,0,0,0,0,0,0,0,0,0,0,0,0,0,0,0,0,0,0,0,0.8137,0.8137,0,0.8142,0.8142,0.8142,0.8131,0.813,0.813,0.813,0.8137,0.8138,0.8138,0,0,0,0,0,0,0,0,0,0,0,0,0,0.8118,0.8119,0.8137,0.8137,0.8137,0.8142,0.8142,0.8142,0.8131,0.813,0.813,0.8129,0.8137,0.8137,0.8138,0,0,0,0,0,0,0,0,0,0,0,0,0,0.8125,0.8119,0.8137,0.8132,0.8132,0.8142,0.8142,0.8142,0.8131,0.813,0.813,0.8129,0.8137,0.8137,0.8138,0.8154,0,0,0.8141,0.8141,0,0,0,0,0,0,0,0,0.8125,0.8126,0.8133,0.8132,0.8132,0.8135,0.8138,0.8146,0.8131,0.8131,0.813,0.8129,0.8137,0.8138,0.814,0.8155,0.8155,0.8141,0.8141,0.8142,0.8142,0,0,0,0,0,0,0,0.8124,0.8126,0.8139,0.8133,0.8132,0.813,0.813,0.814,0.8137,0.8131,0.813,0.8131,0.8137,0.8139,0.814,0.8155,0.8141,0.8141,0.8142,0.8142,0.818,0.8181,0,0,0,0,0,0,0.8124,0.8125,0.8139,0.8139,0.8127,0.813,0.8131,0.8135,0.8137,0.8137,0.8131,0.813,0.8138,0.8139,0.814,0.8157,0.8142,0.8142,0.8143,0.818,0.818,0.8181,0,0,0,0,0,0,0.8124,0.8126,0.8139,0.8132,0.8133,0.8131,0.8136,0.8135,0.8137,0.8137,0.8137,0.8134,0.8138,0.8139,0.815,0.8158,0.8143,0.8143,0.8179,0.818,0.8181,0.8193,0,0,0,0,0,0,0.8124,0.8126,0.8132,0.8132,0.8134,0.8148,0.8136,0.8136,0.8139,0.8137,0.814,0.814,0.8137,0.8149,0.8151,0.8158,0.8144,0.8178,0.818,0.818,0.8192,0.8194,0.8196,0,0,0,0,0,0.8123,0.8136,0.8132,0.8134,0.8141,0.8149,0.815,0.8146,0.8139,0.8145,0.8145,0.814,0.8156,0.815,0.8152,0.816,0.8178,0.8179,0.818,0.8191,0.8193,0.8196,0,0,0,0,0,0,0.8138,0.8136,0.8132,0.8145,0.8147,0.8147,0.8154,0.8149,0.8154,0.8152,0.8148,0.8149,0.816,0.8161,0.8154,0.8174,0.8166,0.8168,0.8173,0.8176,0.8178,0.8177,0.8145,0,0,0,0,0,0.8142,0.8148,0.8147,0.8159,0.816,0.8157,0.816,0.8157,0.8159,0.816,0.816,0.8163,0.8168,0.8172,0.8178,0.8192,0.8191,0.8198,0.82,0.8202,0.8203,0.8209,0.8211,0.8185,0.8185,0.8185,0,0,0.8153,0.8152,0.8157,0.8161,0.8163,0.8168,0.8158,0.8165,0.8169,0.8161,0.8171,0.8171,0.8173,0.8185,0.8191,0.8187,0.821,0.8203,0.8205,0.8205,0.821,0.8213,0.8215,0.8186,0.8186,0.8185,0,0,0.8174,0.8175,0.8184,0.8184,0.8185,0.8183,0.8185,0.8185,0.8184,0.8194,0.8187,0.8192,0.8203,0.8204,0.8206,0.8225,0.822,0.8227,0.8238,0.8243,0.8245,0.8247,0.8252,0.8255,0.8228,0.8228,0.8228,0,0.8186,0.8195,0.8189,0.8196,0.8198,0.8189,0.8198,0.8199,0.8203,0.8204,0.8199,0.821,0.8211,0.8222,0.8227,0.8229,0.8231,0.8227,0.8245,0.8247,0.8248,0.8254,0.8256,0.8229,0.8229,0.8229,0.8229,0,0.8209,0.8215,0.8222,0.8224,0.8226,0.8234,0.823,0.8233,0.8229,0.8227,0.8236,0.8237,0.8241,0.8244,0.8241,0.8254,0.8251,0.8246,0.8237,0.8252,0.8256,0.8259,0.823,0.823,0.823,0.823,0,0,0.8241,0.8238,0.824,0.824,0.8239,0.8244,0.8251,0.8254,0.8256,0.8258,0.8263,0.8271,0.8265,0.8268,0.8264,0.8269,0.8282,0.8263,0.8263,0.8266,0.8295,0.8299,0.8301,0.8279,0.8279,0.828,0.8294,0,0.8261,0.8272,0.8266,0.8278,0.8282,0.8273,0.8279,0.8279,0.8277,0.828,0.8278,0.8283,0.8276,0.8277,0.8281,0.828,0.8288,0.8279,0.8283,0.8283,0.8282,0.8304,0.8308,0.8322,0.8296,0.8297,0.8297,0,0.8285,0.8286,0.8298,0.8295,0.8297,0.8302,0.8303,0.8307,0.8306,0.8304,0.8305,0.83,0.8307,0.8298,0.8306,0.8299,0.8301,0.83,0.83,0.83,0.8291,0.8303,0.8327,0.8329,0.83,0.83,0.83,0,0.8305,0.831,0.8317,0.8317,0.8314,0.8318,0.8317,0.8316,0.8317,0.8318,0.8319,0.8321,0.8323,0.8324,0.832,0.8314,0.8327,0.8319,0.8326,0.8326,0.8329,0.8329,0.8352,0.8331,0.8331,0.8331,0.8331,0,0.8327,0.8335,0.8326,0.833,0.8338,0.8331,0.8339,0.8337,0.8335,0.8339,0.8332,0.8335,0.8329,0.8332,0.8328,0.8334,0.8335,0.8334,0.8332,0.8334,0.8334,0.8335,0.8333,0.8331,0.8331,0.8331,0.8331,0,0.8351,0.8346,0.8353,0.8348,0.8347,0.8353,0.8349,0.8353,0.8349,0.8354,0.8354,0.8349,0.8352,0.8347,0.835,0.8348,0.8356,0.8353,0.8355,0.8354,0.8361,0.836,0.8385,0.8387,0.8365,0.8366,0.8366,0,0.8365,0.837,0.8366,0.8367,0.8366,0.8369,0.8369,0.8363,0.8364,0.8362,0.8366,0.8368,0.8369,0.8373,0.837,0.8371,0.8369,0.8377,0.8369,0.8369,0.8367,0.8367,0.8367,0.8379,0.8379,0.8379,0.8379,0,0.8391,0.8387,0.8388,0.8388,0.8389,0.8389,0.8388,0.8389,0.8382,0.8384,0.8385,0.8386,0.8387,0.8389,0.8389,0.8388,0.8382,0.8382,0.8383,0.8385,0.8385,0.8384,0.8359,0.8381,0.8381,0.8381,0.8381,0.8381,0.8409,0.8412,0.8409,0.841,0.8409,0.8408,0.841,0.8406,0.8408,0.8408,0.8403,0.8406,0.8404,0.8403,0.8402,0.8404,0.84,0.8402,0.8403,0.8403,0.8404,0.8385,0.8404,0.8404,0.8404,0.8404,0.8404,0,0.8433,0.843,0.8431,0.8429,0.843,0.8423,0.8421,0.8422,0.8424,0.8422,0.8423,0.8424,0.8425,0.8421,0.8421,0.8423,0.842,0.8423,0.8423,0.8422,0.8408,0.8406,0.8425,0.8425,0.8425,0.8425,0.8425,0.8425,0.8445,0.845,0.8446,0.8449,0.8446,0.8448,0.8447,0.8446,0.8444,0.8445,0.8446,0.8442,0.8439,0.8439,0.8439,0.8438,0.8438,0.8441,0.8439,0.8426,0.8424,0.8422,0.842,0.8442,0.8442,0.8453,0.8454,0.8454]},{"header":{"parameterUnit":"m.s-1","parameterCategory":1,"la1":30.2991,"la2":30.254,"lo1":-89.0895,"lo2":-89.0444,"dy":0.0017,"dx":0.0017,"nx":28,"ny":28,"refTime":"2026-02-11T09:00:00:Z","depth":0,"parameterNumber":3,"parameterNumberName":"V-component_of_WINDS"},"data":[0,0,0,0,0,0,0,0,0,0,0,0,0,0,0,0,0,0,0,0,0,0,0,0,0,0,0,0,0,0,0,0,0,0,0,0,0,0,0,0,0,0,0,0,0,0,0,0,0,0,0,0,0,0,0,0,0,0,1.9624,1.9624,0,1.9631,1.9631,1.9631,1.9664,1.9664,1.9665,1.9666,1.967,1.9669,1.9669,0,0,0,0,0,0,0,0,0,0,0,0,0,1.9634,1.9634,1.9624,1.9624,1.9624,1.9631,1.9631,1.9631,1.9663,1.9664,1.9665,1.9666,1.967,1.967,1.9669,0,0,0,0,0,0,0,0,0,0,0,0,0,1.9634,1.9634,1.9624,1.9641,1.9643,1.9631,1.9631,1.9631,1.9663,1.9664,1.9665,1.9667,1.967,1.967,1.9669,1.964,0,0,1.9666,1.9666,0,0,0,0,0,0,0,0,1.9634,1.9634,1.9638,1.964,1.9642,1.9648,1.9637,1.9634,1.9663,1.9655,1.9666,1.9667,1.9661,1.9661,1.966,1.9641,1.9641,1.9666,1.9665,1.9665,1.9665,0,0,0,0,0,0,0,1.9634,1.9634,1.9627,1.9638,1.964,1.9647,1.9648,1.9636,1.9652,1.9656,1.9658,1.9659,1.9663,1.9661,1.9661,1.9641,1.9666,1.9665,1.9665,1.9664,1.9596,1.9594,0,0,0,0,0,0,1.9632,1.9633,1.9627,1.9627,1.9641,1.9646,1.9647,1.9645,1.9652,1.9654,1.9658,1.966,1.9662,1.9662,1.9661,1.9626,1.9665,1.9664,1.9664,1.9597,1.9595,1.9594,0,0,0,0,0,0,1.9632,1.9631,1.9626,1.9631,1.9631,1.9645,1.9641,1.9644,1.9643,1.9654,1.9656,1.9654,1.9663,1.9662,1.9645,1.9627,1.9664,1.9663,1.9599,1.9597,1.9595,1.9558,0,0,0,0,0,0,1.9632,1.9631,1.9621,1.963,1.963,1.9611,1.964,1.9643,1.9641,1.9645,1.965,1.9652,1.9664,1.9646,1.9644,1.9626,1.9662,1.96,1.9598,1.9595,1.9561,1.9555,1.955,0,0,0,0,0,1.9633,1.9611,1.9621,1.962,1.9619,1.961,1.961,1.9625,1.964,1.9629,1.9636,1.9652,1.963,1.9644,1.9642,1.9624,1.9601,1.9598,1.9596,1.9563,1.9556,1.955,0,0,0,0,0,0,1.9598,1.9612,1.9624,1.9604,1.9606,1.9616,1.9603,1.9617,1.9614,1.9617,1.9634,1.9635,1.9614,1.9618,1.9634,1.9595,1.9618,1.9614,1.9594,1.9587,1.9582,1.9581,1.9662,0,0,0,0,0,1.9589,1.9582,1.9594,1.9575,1.9576,1.9589,1.9586,1.9597,1.9599,1.96,1.9605,1.9606,1.9598,1.9593,1.9588,1.9562,1.9562,1.9548,1.9542,1.9538,1.9534,1.9518,1.9511,1.9585,1.9585,1.9585,0,0,1.9568,1.9575,1.9569,1.9568,1.9571,1.9562,1.9589,1.9579,1.9572,1.9598,1.9582,1.9586,1.9587,1.9565,1.9555,1.9567,1.9514,1.9534,1.9531,1.9529,1.9514,1.9507,1.9501,1.9583,1.9583,1.9583,0,0,1.9526,1.9531,1.9515,1.9517,1.9521,1.953,1.9526,1.9534,1.9538,1.9522,1.9541,1.9532,1.952,1.9519,1.9518,1.9474,1.9487,1.9471,1.9442,1.9426,1.9421,1.9416,1.9397,1.9391,1.9468,1.9468,1.9468,0,1.9499,1.9487,1.9505,1.9493,1.9491,1.9515,1.9498,1.9499,1.95,1.9497,1.9511,1.9495,1.9498,1.9474,1.9463,1.9462,1.9456,1.947,1.942,1.9415,1.9411,1.9394,1.9387,1.9466,1.9466,1.9466,1.9466,0,1.9454,1.9445,1.9432,1.9433,1.9429,1.9415,1.9429,1.9423,1.9434,1.9441,1.9423,1.9428,1.9422,1.9418,1.9429,1.9395,1.9402,1.9418,1.944,1.9401,1.9385,1.9379,1.9463,1.9463,1.9464,1.9465,0,0,1.9389,1.94,1.9394,1.9394,1.94,1.9393,1.9379,1.9374,1.9368,1.9368,1.9354,1.9343,1.9357,1.9355,1.9366,1.9352,1.9314,1.9369,1.9369,1.9357,1.9274,1.9261,1.9253,1.9324,1.9323,1.9322,1.9273,0,1.9347,1.9324,1.9339,1.9313,1.9304,1.9326,1.9313,1.9314,1.932,1.9312,1.9319,1.9309,1.933,1.9328,1.9316,1.9321,1.9297,1.9325,1.9309,1.9308,1.9306,1.9245,1.9232,1.9186,1.9268,1.9267,1.9266,0,1.9294,1.9292,1.9265,1.9271,1.9268,1.9256,1.9252,1.9245,1.9246,1.9251,1.9248,1.9262,1.9246,1.927,1.9247,1.9266,1.926,1.9261,1.926,1.9257,1.9283,1.9239,1.9172,1.9164,1.9257,1.9257,1.9258,0,1.9247,1.9237,1.922,1.9219,1.9226,1.9217,1.922,1.9222,1.9217,1.9214,1.921,1.9204,1.92,1.9195,1.9205,1.9222,1.918,1.9205,1.9181,1.9181,1.917,1.917,1.9099,1.917,1.917,1.917,1.9171,0,1.9197,1.9179,1.9198,1.9187,1.9167,1.9184,1.9163,1.9168,1.9169,1.9158,1.9177,1.9165,1.9182,1.9171,1.9179,1.9157,1.9156,1.9158,1.916,1.9155,1.9154,1.915,1.9153,1.9169,1.9169,1.9169,1.917,0,1.914,1.9152,1.9134,1.9142,1.9144,1.9128,1.9135,1.9123,1.9131,1.9116,1.9113,1.9124,1.9113,1.9123,1.9113,1.9118,1.9088,1.9096,1.9088,1.9089,1.9064,1.9065,1.8985,1.8975,1.9055,1.9054,1.9054,0,1.9106,1.9093,1.9099,1.9094,1.9095,1.9086,1.9081,1.9097,1.9091,1.909,1.9079,1.9069,1.9062,1.9042,1.9048,1.9039,1.9045,1.9018,1.9043,1.9038,1.9041,1.9041,1.9038,1.9011,1.9011,1.901,1.9009,0,1.9044,1.905,1.9044,1.9039,1.9034,1.903,1.9028,1.9022,1.9038,1.903,1.9019,1.9014,1.9002,1.8991,1.8984,1.8985,1.8998,1.9001,1.8995,1.8988,1.8983,1.8983,1.9071,1.9003,1.9003,1.9004,1.9004,1.9004,1.8995,1.8984,1.8987,1.8978,1.8979,1.8976,1.8965,1.8971,1.8963,1.8955,1.8965,1.895,1.895,1.8941,1.894,1.8927,1.8939,1.893,1.8927,1.8924,1.8919,1.8987,1.8926,1.8927,1.8927,1.8927,1.8927,0,1.8932,1.8935,1.8927,1.8924,1.8917,1.8932,1.8931,1.8923,1.891,1.8909,1.8902,1.8888,1.8877,1.8882,1.8871,1.886,1.8866,1.8857,1.8856,1.8856,1.8911,1.8917,1.8852,1.8852,1.8852,1.8852,1.8852,1.8852,1.8898,1.8879,1.8886,1.8866,1.8868,1.8855,1.8852,1.8849,1.8848,1.8832,1.8823,1.8827,1.8827,1.8817,1.8807,1.8808,1.8802,1.879,1.8794,1.8845,1.8852,1.8859,1.8864,1.879,1.879,1.8739,1.8738,1.8738]}]]